Port Angeles, WA
on Monday, December 31, 2012

Monday
Previous Day Next Day
Daily Summary
 ActualAverageRecord
Temperature
Mean Temperature °F °F  
Max Temperature 39°F 43°F 57°F (1958)
Min Temperature 35°F 33°F 16°F (1968)
Degree Days
Heating Degree Days 28    
Moisture
Dew Point 35°F   
Average Humidity 90    
Maximum Humidity 96    
Minimum Humidity 82    
Precipitation
Precipitation 0.01 in in in ()
Wind
Wind Speed 3 mph   
Max Wind Speed 8 mph   
Max Gust Speed mph   
Visibility 10 miles   
Events Rain   
Averages and records for this station are not official NWS values.
Key: T is trace of precipitation, MM is missing value
Source: NWS Daily Summary
Seasonal Weather Averages
Time(PST)TemperatureDew PointHumidity Pressure Visibility Wind DirectionWind SpeedGust SpeedPrecipitationEvents Conditions
12:53 AM 36.0°F 34.0°F 93% 30.28 in 10.0 miles SSE 3.5 mph - N/A   Overcast
1:36 AM 36.0°F 34.0°F 93% 30.27 in 10.0 miles Calm Calm - N/A   Overcast
1:53 AM 35.1°F 33.1°F 92% 30.28 in 10.0 miles WSW 4.6 mph - N/A   Overcast
2:20 AM 36.0°F 34.0°F 93% 30.27 in 10.0 miles Calm Calm - N/A   Overcast
2:53 AM 35.1°F 33.1°F 92% 30.28 in 10.0 miles SW 4.6 mph - N/A   Partly Cloudy
3:53 AM 35.1°F 33.1°F 92% 30.27 in 10.0 miles Calm Calm - N/A   Clear
4:26 AM 35.1°F 34.0°F 96% 30.24 in 10.0 miles Calm Calm - N/A   Mostly Cloudy
4:40 AM 35.1°F 34.0°F 96% 30.24 in 10.0 miles SW 3.5 mph - N/A   Mostly Cloudy
4:53 AM 36.0°F 34.0°F 93% 30.25 in 10.0 miles SSW 3.5 mph - N/A   Mostly Cloudy
5:53 AM 36.0°F 34.0°F 93% 30.25 in 10.0 miles WSW 4.6 mph - N/A   Overcast
6:32 AM 37.0°F 34.0°F 89% 30.25 in 10.0 miles WSW 4.6 mph - N/A   Overcast
6:53 AM 37.0°F 34.0°F 89% 30.27 in 10.0 miles Calm Calm - N/A   Overcast
7:11 AM 37.0°F 34.0°F 89% 30.25 in 10.0 miles SW 5.8 mph - N/A   Overcast
7:53 AM 37.0°F 34.0°F 89% 30.27 in 10.0 miles SW 4.6 mph - N/A   Overcast
8:15 AM 37.0°F 35.1°F 93% 30.27 in 10.0 miles WSW 3.5 mph - N/A   Overcast
8:53 AM 37.9°F 35.1°F 89% 30.29 in 10.0 miles Calm Calm - 0.00 in Rain Light Rain
9:53 AM 37.0°F 35.1°F 93% 30.31 in 7.0 miles WSW 3.5 mph - 0.00 in Rain Light Rain
10:53 AM 37.0°F 35.1°F 93% 30.33 in 10.0 miles Calm Calm - 0.01 in Rain Light Rain
11:53 AM 39.0°F 36.0°F 89% 30.33 in 10.0 miles East 4.6 mph - 0.00 in Rain Light Rain
12:30 PM 39.0°F 36.0°F 89% 30.31 in 10.0 miles ESE 4.6 mph - 0.00 in Rain Light Rain
12:50 PM 39.2°F 35.6°F 87% 30.30 in 10.0 miles SE 4.6 mph - 0.00 in Rain Light Rain
12:53 PM 39.0°F 36.0°F 89% 30.32 in 10.0 miles ESE 4.6 mph - 0.00 in Rain Light Rain
1:06 PM 39.0°F 36.0°F 89% 30.31 in 10.0 miles East 5.8 mph - 0.00 in   Overcast
1:29 PM 39.0°F 36.0°F 89% 30.31 in 10.0 miles East 6.9 mph - 0.00 in   Overcast
1:53 PM 39.0°F 35.1°F 86% 30.32 in 10.0 miles East 8.1 mph - 0.00 in   Overcast
2:14 PM 39.0°F 35.1°F 86% 30.32 in 10.0 miles East 4.6 mph - N/A   Overcast
2:50 PM 39.2°F 35.6°F 87% 30.33 in 10.0 miles ESE 5.8 mph - N/A   Overcast
2:53 PM 39.0°F 36.0°F 89% 30.35 in 10.0 miles ESE 6.9 mph - N/A   Overcast
3:53 PM 37.9°F 36.0°F 93% 30.37 in 10.0 miles South 3.5 mph - N/A   Overcast
4:53 PM 37.9°F 35.1°F 89% 30.38 in 10.0 miles Calm Calm - 0.00 in Rain Light Rain
5:53 PM 37.9°F 35.1°F 89% 30.38 in 10.0 miles Calm Calm - 0.00 in   Overcast
6:13 PM 37.9°F 35.1°F 89% 30.38 in 10.0 miles Calm Calm - N/A   Overcast
6:21 PM 37.9°F 36.0°F 93% 30.38 in 10.0 miles Calm Calm - N/A   Overcast
6:53 PM 37.9°F 36.0°F 93% 30.40 in 10.0 miles South 3.5 mph - N/A   Overcast
7:36 PM 37.9°F 36.0°F 93% 30.40 in 10.0 miles SE 4.6 mph - N/A   Overcast
7:53 PM 37.4°F 35.6°F 93% 30.40 in 10.0 miles SE 3.5 mph - N/A   Overcast
8:15 PM 37.9°F 36.0°F 93% 30.40 in 10.0 miles East 3.5 mph - N/A   Overcast
8:37 PM 39.0°F 36.0°F 89% 30.40 in 10.0 miles Calm Calm - N/A   Overcast
8:53 PM 39.0°F 35.1°F 86% 30.42 in 10.0 miles Calm Calm - N/A   Overcast
9:53 PM 39.2°F 35.6°F 87% 30.43 in 10.0 miles Calm Calm - N/A   Overcast
10:53 PM 39.0°F 34.0°F 82% 30.46 in 10.0 miles Calm Calm - N/A   Overcast
11:53 PM 39.0°F 35.1°F 86% 30.45 in 10.0 miles South 4.6 mph - N/A   Overcast
Moon Phase
Dec. 31 Jan. 04 Jan. 11 Jan. 18 Jan. 26
Sunrise:08:04 AM (PST) Moon Rise:08:24 PM (PST)12/31
Sunset:04:30 PM (PST) Moon Set:09:32 AM (PST)12/31

Copyright © 2014 The Weather Underground, Inc.